KB6LA Weather Reports


time (UTC)temp
F
wind
direction
speed
knots
gust
knots
rain 1hr
in
rain 24hr
in
rain mn
in
humidity
%
barometer
mb
20260503072756 58 229 4.3 6.1 0.00 0.00 0.00 89 1012.1
20260503072248 58 239 3.5 5.2 0.00 0.00 0.00 90 1012.1
20260503071741 58 187 3.5 5.2 0.00 0.00 0.00 90 1012.1
20260503071234 58 213 2.6 5.2 0.00 0.00 0.00 90 1011.8
20260503070726 58 217 2.6 3.5 0.00 0.00 0.00 90 1011.8
20260503070219 58 202 1.7 5.2 0.00 0.00 0.00 90 1011.8
20260503055037 58 241 4.3 6.1 0.00 0.00 0.00 89 1011.8
20260503054530 58 200 1.7 7.0 0.00 0.00 0.00 89 1011.8
20260503054022 58 226 3.5 7.0 0.00 0.00 0.00 89 1011.8
20260503053515 59 256 1.7 7.0 0.00 0.00 0.00 89 1012.1
20260503053009 59 249 2.6 7.8 0.00 0.00 0.00 89 1012.1
20260503052501 59 205 4.3 7.8 0.00 0.00 0.00 90 1012.1
20260503051954 58 234 3.5 7.8 0.00 0.00 0.00 90 1012.1
20260503050939 59 209 3.5 6.1 0.00 0.00 0.00 90 1012.1
20260503050431 59 227 3.5 6.1 0.00 0.00 0.00 90 1012.1
20260503045417 59 245 3.5 7.8 0.00 0.00 0.00 91 1011.8
20260503044911 59 226 2.6 7.8 0.00 0.00 0.00 91 1011.8
20260503043855 59 214 4.3 7.0 0.00 0.00 0.00 90 1011.8
20260503043348 59 180 2.6 6.1 0.00 0.00 0.00 90 1011.8
20260503042841 59 220 4.3 7.0 0.00 0.00 0.00 91 1011.8
20260503042334 59 212 3.5 7.0 0.00 0.00 0.00 90 1011.4
20260503041826 59 195 2.6 5.2 0.00 0.00 0.00 90 1011.4
20260503041320 59 197 1.7 7.0 0.00 0.00 0.00 91 1011.4
20260503040812 59 198 3.5 7.0 0.00 0.00 0.00 90 1011.1
20260503040304 59 253 0.9 7.0 0.00 0.00 0.00 90 1011.1
20260503035758 59 256 2.6 7.0 0.00 0.00 0.00 90 1011.1
20260503034743 59 246 0.9 7.0 0.00 0.00 0.00 90 1011.1
20260503034236 59 273 3.5 7.0 0.00 0.00 0.00 90 1010.7
20260503033221 59 229 1.7 5.2 0.00 0.00 0.00 90 1010.7
20260503032714 59 223 1.7 6.1 0.00 0.00 0.00 90 1010.7
20260503032207 59 208 4.3 6.1 0.00 0.00 0.00 90 1010.4
20260503031659 59 259 0.9 7.8 0.00 0.00 0.00 90 1010.4
20260503031152 59 233 4.3 7.8 0.00 0.00 0.00 89 1010.4
20260503030644 59 268 1.7 6.1 0.00 0.00 0.00 89 1010.4
20260503030137 59 286 1.7 6.1 0.00 0.00 0.00 89 1010.1
20260503025631 59 266 1.7 6.1 0.00 0.00 0.00 89 1010.1
20260503024109 59 316 5.2 7.0 0.00 0.00 0.00 88 1010.1
20260503023601 59 248 4.3 7.8 0.00 0.00 0.00 88 1010.1
20260503022546 59 225 3.5 7.8 0.00 0.00 0.00 88 1010.1
20260503021532 60 261 4.3 7.8 0.00 0.00 0.00 87 1009.7
20260503021025 60 271 3.5 7.0 0.00 0.00 0.00 87 1009.7
20260503020517 60 208 4.3 7.0 0.00 0.00 0.00 86 1010.1
20260503020010 60 235 3.5 7.0 0.00 0.00 0.00 86 1009.7
20260503015503 60 273 3.5 7.0 0.00 0.00 0.00 86 1009.7
20260503014956 60 241 4.3 8.7 0.00 0.00 0.00 86 1009.7
20260503013941 60 276 4.3 7.8 0.00 0.00 0.00 85 1009.7
20260503012926 60 264 5.2 11.3 0.00 0.00 0.00 85 1009.7
20260503012419 61 232 6.1 11.3 0.00 0.00 0.00 84 1009.7
20260503011912 62 239 5.2 8.7 0.00 0.00 0.00 82 1009.7
20260503011405 62 243 4.3 8.7 0.00 0.00 0.00 81 1009.7
20260503010858 62 151 2.6 8.7 0.00 0.00 0.00 81 1009.7
20260503010350 62 217 3.5 9.6 0.00 0.00 0.00 82 1009.7
20260503005842 61 254 5.2 9.6 0.00 0.00 0.00 82 1009.7
20260503005335 61 250 5.2 8.7 0.00 0.00 0.00 82 1009.4
20260503004828 61 231 6.1 8.7 0.00 0.00 0.00 82 1009.7
20260503004321 61 227 5.2 11.3 0.00 0.00 0.00 82 1009.7
20260503003306 62 279 5.2 11.3 0.00 0.00 0.00 81 1009.7
20260503002252 62 246 6.1 11.3 0.00 0.00 0.00 80 1009.7
20260503001745 63 240 7.8 12.2 0.00 0.00 0.00 80 1010.1
20260503001237 62 224 6.1 12.2 0.00 0.00 0.00 80 1009.7
20260503000730 63 221 5.2 9.6 0.00 0.00 0.00 78 1009.7
20260503000222 63 237 4.3 9.6 0.00 0.00 0.00 79 1009.7
20260502234701 63 233 7.0 12.2 0.00 0.00 0.00 78 1009.7
20260502234154 63 224 7.8 12.2 0.00 0.00 0.00 79 1009.7
20260502233646 63 231 5.2 9.6 0.00 0.00 0.00 79 1010.1
20260502233139 63 237 6.1 12.2 0.00 0.00 0.00 79 1010.1
20260502232124 64 210 7.8 11.3 0.00 0.00 0.00 78 1010.1
20260502231617 63 229 4.3 12.2 0.00 0.00 0.00 78 1009.7
20260502231110 63 244 7.0 12.2 0.00 0.00 0.00 79 1009.7
20260502230602 63 246 3.5 13.0 0.00 0.00 0.00 80 1010.1
20260502230055 62 262 4.3 15.6 0.00 0.00 0.00 83 1010.1
20260502225548 62 214 12.2 15.6 0.00 0.00 0.00 81 1010.4
20260502225041 62 221 9.6 12.2 0.00 0.00 0.00 81 1010.4
20260502224026 62 232 9.6 13.9 0.00 0.00 0.00 81 1010.7
20260502223519 62 258 4.3 13.9 0.00 0.00 0.00 82 1010.7
20260502222504 62 249 7.0 13.0 0.00 0.00 0.00 82 1011.1
20260502221956 62 225 8.7 12.2 0.00 0.00 0.00 81 1011.4
20260502221449 62 227 5.2 12.2 0.00 0.00 0.00 81 1011.1
20260502220942 62 278 8.7 12.2 0.00 0.00 0.00 81 1011.4
20260502220435 62 247 9.6 12.2 0.00 0.00 0.00 81 1011.4
20260502215421 62 229 11.3 13.0 0.00 0.00 0.00 80 1011.8
20260502214913 63 218 5.2 12.2 0.00 0.00 0.00 81 1011.8
20260502214406 62 222 6.1 13.0 0.00 0.00 0.00 81 1011.8
20260502213858 62 214 8.7 13.0 0.00 0.00 0.00 81 1011.8
20260502213351 63 227 9.6 13.0 0.00 0.00 0.00 80 1012.1
20260502212843 62 218 9.6 12.2 0.00 0.00 0.00 81 1012.1
20260502212336 63 255 5.2 13.9 0.00 0.00 0.00 80 1012.1
20260502211829 63 225 6.1 13.9 0.00 0.00 0.00 80 1012.1
20260502211322 62 274 6.1 12.2 0.00 0.00 0.00 80 1012.1
20260502210815 63 237 5.2 12.2 0.00 0.00 0.00 80 1012.1
20260502205800 63 274 6.1 13.0 0.00 0.00 0.00 79 1012.4
20260502205253 64 263 7.8 12.2 0.00 0.00 0.00 77 1012.4
20260502204746 64 218 6.1 13.9 0.00 0.00 0.00 76 1012.4
20260502204239 65 239 8.7 13.9 0.00 0.00 0.00 76 1012.4
20260502203224 65 241 7.8 9.6 0.00 0.00 0.00 76 1012.4
20260502202209 66 226 7.8 8.7 0.00 0.00 0.00 74 1012.4
20260502201702 65 243 5.2 8.7 0.00 0.00 0.00 75 1012.4
20260502201155 65 227 4.3 8.7 0.00 0.00 0.00 76 1012.4
20260502200648 65 304 4.3 8.7 0.00 0.00 0.00 76 1012.4
20260502200141 64 289 0.9 8.7 0.00 0.00 0.00 78 1012.4
20260502195633 64 235 6.1 8.7 0.00 0.00 0.00 79 1012.4
20260502195126 64 247 7.8 11.3 0.00 0.00 0.00 77 1012.4
20260502194618 64 237 7.8 11.3 0.00 0.00 0.00 77 1012.8
20260502194111 64 237 5.2 7.8 0.00 0.00 0.00 79 1012.8
20260502193604 63 212 6.1 8.7 0.00 0.00 0.00 79 1012.8
20260502193057 64 263 6.1 8.7 0.00 0.00 0.00 79 1013.1
20260502192550 64 282 6.1 8.7 0.00 0.00 0.00 79 1012.8
20260502192041 64 252 3.5 8.7 0.00 0.00 0.00 79 1013.1
20260502191534 64 242 5.2 7.8 0.00 0.00 0.00 79 1013.1
20260502191027 64 279 5.2 7.8 0.00 0.00 0.00 79 1013.1
20260502190520 64 245 4.3 11.3 0.00 0.00 0.00 79 1013.1
20260502190012 63 260 3.5 11.3 0.00 0.00 0.00 80 1013.4
20260502185505 63 254 7.0 9.6 0.00 0.00 0.00 79 1013.4
20260502184451 65 247 4.3 7.8 0.00 0.00 0.00 77 1013.8
20260502183437 64 232 0.9 3.5 0.00 0.00 0.00 77 1013.4
20260502182928 64 126 0.9 2.6 0.00 0.00 0.00 78 1013.8
20260502181914 63 164 2.6 5.2 0.00 0.00 0.00 79 1013.4
20260502181406 63 152 2.6 5.2 0.00 0.00 0.00 80 1013.4
20260502180859 63 96 3.5 5.2 0.00 0.00 0.00 80 1013.4
20260502170224 61 6 1.7 2.6 0.00 0.00 0.00 85 1014.1
20260502164156 60 273 0.0 1.7 0.00 0.00 0.00 87 1014.1
20260502163649 59 295 0.0 3.5 0.00 0.00 0.00 88 1014.1
20260502163141 59 270 0.9 3.5 0.00 0.00 0.00 88 1014.1
20260502162127 59 169 1.7 3.5 0.00 0.00 0.00 88 1014.1
20260502161112 59 193 3.5 5.2 0.00 0.00 0.00 89 1014.1
20260502160604 59 310 0.9 6.1 0.00 0.00 0.00 89 1014.1
20260502152000 58 341 0.0 5.2 0.00 0.00 0.00 90 1013.8
20260502151452 58 144 0.0 5.2 0.00 0.00 0.00 91 1013.8
20260502150945 58 35 3.5 6.1 0.00 0.00 0.00 91 1013.4
20260502150438 58 104 2.6 6.1 0.00 0.00 0.00 91 1013.4
20260502130650 57 190 0.0 1.7 0.00 0.00 0.00 93 1012.8
20260502130143 57 188 0.9 1.7 0.00 0.00 0.00 93 1012.8
20260502123606 57 241 0.9 2.6 0.00 0.00 0.00 93 1012.8
20260502123059 57 270 0.0 3.5 0.00 0.00 0.00 93 1012.8
20260502122552 57 202 1.7 3.5 0.00 0.00 0.00 93 1012.8
20260502122044 57 211 2.6 3.5 0.00 0.00 0.00 93 1012.8
20260502121537 57 236 2.6 5.2 0.00 0.00 0.00 93 1012.4
20260502121030 57 221 3.5 5.2 0.00 0.00 0.00 93 1012.4
20260502120523 57 278 0.9 6.1 0.00 0.00 0.00 93 1012.4
20260502115509 57 231 4.3 5.2 0.00 0.00 0.00 93 1012.8
20260502115001 57 245 1.7 5.2 0.00 0.00 0.00 92 1012.4
20260502114454 58 232 3.5 5.2 0.00 0.00 0.00 93 1012.4
20260502113947 58 184 1.7 5.2 0.00 0.00 0.00 92 1012.8
20260502113439 58 213 4.3 5.2 0.00 0.00 0.00 92 1012.4
20260502112932 58 225 1.7 2.6 0.00 0.00 0.00 92 1012.4
20260502112426 58 233 1.7 3.5 0.00 0.00 0.00 92 1012.4
20260502111918 58 240 1.7 3.5 0.00 0.00 0.00 92 1012.4
20260502111410 58 261 1.7 1.7 0.00 0.00 0.00 92 1012.4
20260502110903 57 270 0.9 1.7 0.00 0.00 0.00 92 1012.4
20260502110356 57 259 0.9 2.6 0.00 0.00 0.00 92 1012.4
20260502105849 57 282 0.0 2.6 0.00 0.00 0.00 92 1012.4
20260502105341 58 241 1.7 2.6 0.00 0.00 0.00 92 1012.4
20260502104834 58 228 1.7 3.5 0.00 0.00 0.00 92 1012.1
20260502104327 58 186 1.7 3.5 0.00 0.00 0.00 92 1012.4
20260502103820 58 277 0.9 1.7 0.00 0.00 0.00 92 1012.1
20260502102804 58 261 0.0 2.6 0.00 0.00 0.00 92 1012.4
20260502102258 58 248 0.0 2.6 0.00 0.00 0.00 92 1012.4
20260502101243 57 225 2.6 3.5 0.00 0.00 0.00 92 1012.1
20260502100736 57 273 0.9 3.5 0.00 0.00 0.00 92 1012.1
20260502100229 57 275 0.9 3.5 0.00 0.00 0.00 92 1012.1
20260502091116 58 276 1.7 2.6 0.00 0.00 0.00 90 1012.4
20260502090609 58 279 1.7 1.7 0.00 0.00 0.00 90 1012.4